Caro, MI

11:52 AM EST on February 24, 2018 (GMT -0500)
Caro

Weather History for KCFS - August, 2013

Change the Weather History Date:

Friday, August 2, 2013

  Actual Average (KMBS) Record (KMBS)
Temperature  
Mean Temperature 64 °F -  
Max Temperature 76 °F 79 °F 96 °F (2006)
Min Temperature 53 °F 58 °F 52 °F (1999)
Growing Degree Days 14 (Base 50)    
Moisture  
Dew Point 60 °F    
Average Humidity 74    
Maximum Humidity 98    
Minimum Humidity 51    
Precipitation  
Precipitation 0.00 in - - ()
Sea Level Pressure  
Sea Level Pressure 29.86 in    
Wind  
Wind Speed 7 mph (WSW)    
Max Wind Speed 20 mph    
Max Gust Speed 28 mph    
Visibility 10 miles    
Events Rain    
Averages and records for this station are not official NWS values.
T = Trace of Precipitation, MM = Missing Value Source: NWS Daily Summary

Daily Weather History Graph

Daily Weather History Graph

Search for Another Location

Airport or City:

Trip Planner

Search our weather history database for the weather conditions in past years. The results will help you decide how hot, cold, wet, or windy it might be!

Date:

Astronomy

Aug. 02, 2013 Rise Set
Actual Time 6:24 AM EDT 8:54 PM EDT
Civil Twilight 5:52 AM EDT 9:26 PM EDT
Nautical Twilight 5:11 AM EDT 10:07 PM EDT
Astronomical Twilight 4:26 AM EDT 10:52 PM EDT
Moon 2:43 AM EDT (8/2) 5:52 PM EDT (8/2)
Length of Visible Light 15h 34m
Length of Day
14h 29m
Waning Crescent, 16% of the Moon is Illuminated
Aug 2
Waning Crescent
Aug 6
New
Aug 14
First Quarter
Aug 20
Full
Aug 28
Last Quarter

Hourly Weather History & Observations

Time (EDT) Temp. Dew Point Humidity Pressure Visibility Wind Dir Wind Speed Gust Speed Precip Events Conditions
7:06 AM 54.0 °F 53.2 °F 97% 29.90 in 10.0 mi Calm Calm - N/A   Mostly Cloudy
7:15 AM 53.8 °F 53.1 °F 97% 29.91 in 7.0 mi Calm Calm - N/A   Scattered Clouds
7:34 AM 54.3 °F 53.6 °F 97% 29.91 in 7.0 mi Calm Calm - N/A   Clear
7:55 AM 57.4 °F 56.8 °F 98% 29.90 in 10.0 mi Calm Calm - N/A   Clear
8:15 AM 60.6 °F 57.4 °F 89% 29.90 in 10.0 mi SSW 6.9 mph - N/A   Clear
8:35 AM 62.6 °F 57.4 °F 83% 29.90 in 10.0 mi SW 6.9 mph - N/A   Clear
8:55 AM 64.8 °F 57.2 °F 76% 29.90 in 10.0 mi SW 10.4 mph - N/A   Clear
9:15 AM 67.3 °F 56.7 °F 69% 29.88 in 10.0 mi SSW 6.9 mph - N/A   Clear
9:35 AM 68.2 °F 56.7 °F 67% 29.88 in 10.0 mi SW 8.1 mph - N/A   Clear
9:54 AM 70.0 °F 57.4 °F 64% 29.88 in 10.0 mi SSW 10.4 mph - N/A   Clear
10:15 AM 70.5 °F 57.2 °F 63% 29.89 in 10.0 mi SSW 11.5 mph - N/A   Clear
10:35 AM 70.9 °F 57.7 °F 63% 29.89 in 10.0 mi SW 13.8 mph - N/A   Clear
10:55 AM 72.3 °F 58.1 °F 61% 29.89 in 10.0 mi WSW 9.2 mph - N/A   Scattered Clouds
11:15 AM 73.0 °F 57.9 °F 59% 29.88 in 10.0 mi WSW 13.8 mph - N/A   Scattered Clouds
11:35 AM 73.4 °F 58.1 °F 59% 29.88 in 10.0 mi SW 10.4 mph 17.3 mph N/A   Clear
11:55 AM 73.6 °F 59.2 °F 61% 29.88 in 10.0 mi SW 12.7 mph 17.3 mph N/A   Clear
11:56 AM 73.6 °F 59.4 °F 61% 29.88 in 10.0 mi SW 13.8 mph 17.3 mph N/A   Clear
1:18 PM 74.3 °F 60.3 °F 61% 29.87 in 10.0 mi SW 13.8 mph 19.6 mph N/A   Scattered Clouds
1:35 PM 76.5 °F 58.5 °F 54% 29.86 in 10.0 mi SW 17.3 mph 21.9 mph N/A   Mostly Cloudy
1:55 PM 75.0 °F 58.5 °F 56% 29.84 in 10.0 mi WSW 17.3 mph 21.9 mph N/A   Scattered Clouds
2:15 PM 76.1 °F 57.0 °F 51% 29.84 in 10.0 mi SW 15.0 mph 18.4 mph N/A   Scattered Clouds
2:34 PM 75.7 °F 57.4 °F 53% 29.83 in 10.0 mi SW 13.8 mph 20.7 mph N/A   Mostly Cloudy
2:55 PM 76.1 °F 58.6 °F 55% 29.84 in 10.0 mi SW 12.7 mph 19.6 mph N/A   Mostly Cloudy
3:15 PM 75.7 °F 58.8 °F 56% 29.83 in 10.0 mi SSW 16.1 mph 19.6 mph N/A   Mostly Cloudy
3:35 PM 74.1 °F 59.7 °F 61% 29.82 in 10.0 mi SW 13.8 mph 21.9 mph N/A   Overcast
3:55 PM 74.7 °F 60.3 °F 61% 29.81 in 10.0 mi SW 18.4 mph 24.2 mph N/A   Mostly Cloudy
4:15 PM 75.4 °F 61.0 °F 61% 29.81 in 10.0 mi SSW 19.6 mph 27.6 mph N/A   Scattered Clouds
4:35 PM 74.7 °F 60.3 °F 61% 29.82 in 10.0 mi SW 16.1 mph 23.0 mph N/A   Mostly Cloudy
4:55 PM 73.9 °F 60.8 °F 63% 29.82 in 10.0 mi SW 15.0 mph 23.0 mph N/A   Mostly Cloudy
5:14 PM 73.0 °F 61.2 °F 66% 29.82 in 10.0 mi WSW 11.5 mph 19.6 mph N/A   Mostly Cloudy
5:35 PM 75.2 °F 62.1 °F 64% 29.82 in 10.0 mi SW 11.5 mph 16.1 mph N/A   Scattered Clouds
5:55 PM 70.0 °F 61.7 °F 75% 29.82 in 10.0 mi NNE 3.5 mph - N/A   Mostly Cloudy
6:14 PM 68.0 °F 61.9 °F 81% 29.82 in 10.0 mi North 3.5 mph - N/A   Overcast
6:35 PM 69.3 °F 62.2 °F 78% 29.82 in 10.0 mi Calm Calm - N/A   Overcast
6:55 PM 69.8 °F 62.6 °F 78% 29.82 in 10.0 mi Calm Calm - N/A   Overcast
7:14 PM 69.8 °F 63.0 °F 79% 29.82 in 10.0 mi Calm Calm - N/A   Mostly Cloudy
7:35 PM 69.6 °F 63.5 °F 81% 29.83 in 10.0 mi North 4.6 mph - N/A   Overcast
7:55 PM 69.3 °F 63.3 °F 81% 29.83 in 10.0 mi Calm Calm - N/A   Overcast
8:15 PM 69.4 °F 63.7 °F 82% 29.83 in 10.0 mi Calm Calm - N/A Rain Light Rain
8:35 PM 68.4 °F 64.6 °F 88% 29.84 in 10.0 mi North 5.8 mph - N/A Rain Light Rain
8:55 PM 67.3 °F 64.9 °F 92% 29.85 in 10.0 mi NW 3.5 mph - N/A   Mostly Cloudy
9:15 PM 67.3 °F 64.8 °F 92% 29.85 in 10.0 mi Calm Calm - N/A   Overcast
9:35 PM 67.3 °F 64.8 °F 92% 29.87 in 10.0 mi Calm Calm - N/A   Mostly Cloudy
9:52 PM 66.4 °F 63.5 °F 90% 29.87 in 10.0 mi WSW 4.6 mph - N/A   Scattered Clouds
10:56 PM 66.2 °F 62.6 °F 88% 29.89 in 10.0 mi Calm Calm - N/A   Scattered Clouds
11:16 PM 64.4 °F 62.6 °F 94% 29.90 in 10.0 mi WNW 4.6 mph - N/A   Clear
11:36 PM 64.4 °F 60.8 °F 88% 29.90 in 10.0 mi NW 4.6 mph - N/A   Clear
11:56 PM 64.4 °F 59.0 °F 83% 29.90 in 10.0 mi NW 4.6 mph - N/A   Clear